Location: Unspecified
(0.0000°N, 0.0000°E)
Time: 14:01:14
(UTC+00:00)

Hubble Space Telescope - Pass Details

Date: 04 December 2021
Orbit: 534 x 538 km, 28.5° (Epoch: 07 December)

Event Time Altitude Azimuth Distance (km) Brightness Sun altitude
Rises 20:22:41 0° 244° (WSW) 2,672 5.4 -34.8°
Reaches altitude 10° 20:24:58 10° 246° (WSW) 1,779 4.2 -35.3°
Enters shadow 20:25:31 14° 248° (WSW) 1,567 3.8 -35.4°
